Date String (YYYY-MM-DD hh:mm:ss) UTC,Instrument flags,Ambient pressure (hPa),Sample flow (lpm),Bypass flow (lpm),Sample temperature (°C),Ambient temperature (°C),ASC tube jacket temperature (°C),LED temperature (°C),Box temperature (°C),Sample RH (%),Span deviation,Mass concentration (μg/m³),Mass concentration (μg/m³),Mass concentration (μg/m³)
DateTimeUTC,F1_M11,P_M11,Q1_M11,Q2_M11,T1_M11,T2_M11,T3_M11,T4_M11,T5_M11,U1_M11,ZSPAN_M11,X0_M11,X2_M11,X1_M11
2022-10-13 09:00:00,,0831.2,5.00,0.00,27.0,25.2,00.0,35.9,28.8,15.3,0000.0,0016.12,0005.52,0004.46
2022-10-13 09:01:00,,0831.2,5.00,0.00,27.0,25.2,00.0,35.9,28.8,15.3,0000.0,0015.94,0005.55,0004.46
2022-10-13 09:02:00,,0831.2,5.00,0.00,27.0,25.2,00.0,35.9,28.7,15.3,0000.0,0014.55,0005.57,0004.46
2022-10-13 09:03:00,,0831.2,5.00,0.00,27.0,25.2,00.0,35.9,28.7,15.3,0000.0,0014.48,0005.62,0004.47
2022-10-13 09:04:00,,0831.2,5.00,0.00,27.0,25.1,00.0,35.9,28.7,15.3,0000.0,0014.35,0005.59,0004.48
2022-10-13 09:05:00,,0831.2,5.00,0.00,26.9,25.1,00.0,35.9,28.7,15.3,0000.0,0013.81,0005.52,0004.48
2022-10-13 09:06:00,,0831.2,5.02,0.00,26.9,25.1,00.0,35.9,28.7,15.3,0000.0,0013.17,0005.49,0004.48
2022-10-13 09:07:00,,0831.2,4.98,0.00,26.9,25.1,00.0,35.8,28.7,15.3,0000.0,0012.01,0005.51,0004.49
2022-10-13 09:08:00,,0831.2,5.00,0.00,26.9,25.1,00.0,35.8,28.7,15.3,0000.0,0011.74,0005.46,0004.49
2022-10-13 09:09:00,,0831.1,5.01,0.00,26.9,25.1,00.0,35.8,28.7,15.3,0000.0,0011.70,0005.46,0004.48
2022-10-13 09:10:00,,0831.1,5.01,0.00,26.9,25.1,00.0,35.8,28.7,15.3,0000.0,0011.63,0005.41,0004.47
2022-10-13 09:11:00,,0831.1,5.00,0.00,26.9,25.1,00.0,35.8,28.7,15.3,0000.0,0011.44,0005.37,0004.46
2022-10-13 09:12:00,,0831.1,4.98,0.00,26.9,25.1,00.0,35.8,28.7,15.3,0000.0,0011.14,0005.36,0004.45
2022-10-13 09:13:00,,0831.1,5.00,0.00,26.9,25.1,00.0,35.8,28.6,15.3,0000.0,0011.12,0005.35,0004.45
2022-10-13 09:14:00,,0831.1,5.00,0.00,26.9,25.1,00.0,35.8,28.7,15.3,0000.0,0011.31,0005.30,0004.44
2022-10-13 09:15:00,,0831.1,5.01,0.00,26.8,25.1,00.0,35.8,28.6,15.3,0000.0,0011.16,0005.32,0004.43
2022-10-13 09:16:00,,0831.0,5.01,0.00,26.8,25.1,00.0,35.7,28.6,15.3,0000.0,0011.34,0005.36,0004.43
2022-10-13 09:17:00,,0831.0,5.01,0.00,26.8,25.1,00.0,35.7,28.6,15.3,0000.0,0012.09,0005.39,0004.42
2022-10-13 09:18:00,,0831.0,4.98,0.00,26.8,25.0,00.0,35.7,28.6,15.3,0000.0,0012.69,0005.40,0004.41
2022-10-13 09:19:00,,0831.0,5.00,0.00,26.8,25.0,00.0,35.7,28.6,15.4,0000.0,0012.95,0005.39,0004.40
2022-10-13 09:20:00,,0831.0,5.00,0.00,26.8,25.0,00.0,35.7,28.6,15.4,0000.0,0012.94,0005.39,0004.40
2022-10-13 09:21:00,,0831.0,5.01,0.00,26.8,25.0,00.0,35.7,28.6,15.4,0000.0,0014.15,0005.48,0004.41
2022-10-13 09:22:00,,0831.0,5.01,0.00,26.8,25.0,00.0,35.7,28.6,15.4,0000.0,0014.84,0005.50,0004.41
2022-10-13 09:23:00,,0831.0,5.00,0.00,26.8,25.0,00.0,35.7,28.6,15.5,0000.0,0015.96,0005.50,0004.41
2022-10-13 09:24:00,,0831.0,5.00,0.00,26.8,25.0,00.0,35.7,28.6,15.5,0000.0,0016.31,0005.52,0004.41
2022-10-13 09:25:00,,0831.0,5.00,0.00,26.8,25.0,00.0,35.7,28.6,15.6,0000.0,0016.41,0005.52,0004.41
2022-10-13 09:26:00,,0831.0,4.99,0.00,26.8,25.0,00.0,35.7,28.5,15.6,0000.0,0017.15,0005.53,0004.41
2022-10-13 09:27:00,,0831.0,5.00,0.00,26.8,25.0,00.0,35.7,28.5,15.7,0000.0,0016.91,0005.54,0004.42
2022-10-13 09:28:00,,0830.9,5.01,0.00,26.7,25.0,00.0,35.7,28.5,15.6,0000.0,0016.04,0005.54,0004.43
2022-10-13 09:29:00,,0830.9,5.00,0.00,26.7,25.0,00.0,35.6,28.6,15.5,0000.0,0015.65,0005.55,0004.44
2022-10-13 09:30:00,,0830.9,5.00,0.00,26.7,25.0,00.0,35.6,28.5,15.6,0000.0,0015.67,0005.60,0004.47
2022-10-13 09:31:00,,0830.9,5.00,0.00,26.7,25.0,00.0,35.6,28.5,15.5,0000.0,0016.20,0005.64,0004.47
2022-10-13 09:32:00,,0830.9,4.99,0.00,26.7,25.0,00.0,35.6,28.6,15.6,0000.0,0015.02,0005.59,0004.48
2022-10-13 09:33:00,,0830.9,5.00,0.00,26.7,25.0,00.0,35.6,28.5,15.6,0000.0,0014.98,0005.59,0004.47
2022-10-13 09:34:00,,0830.9,5.00,0.00,26.7,25.0,00.0,35.6,28.5,15.6,0000.0,0014.28,0005.57,0004.49
2022-10-13 09:35:00,,0830.9,5.00,0.00,26.7,25.0,00.0,35.6,28.6,15.5,0000.0,0014.12,0005.56,0004.49
2022-10-13 09:36:00,,0830.9,5.01,0.00,26.7,25.0,00.0,35.6,28.5,15.5,0000.0,0014.41,0005.59,0004.49
2022-10-13 09:37:00,,0830.8,5.00,0.00,26.7,25.0,00.0,35.6,28.6,15.4,0000.0,0014.07,0005.60,0004.49
2022-10-13 09:38:00,,0830.8,5.00,0.00,26.7,25.0,00.0,35.6,28.6,15.4,0000.0,0014.16,0005.58,0004.48
2022-10-13 09:39:00,,0830.8,4.98,0.00,26.7,25.0,00.0,35.6,28.6,15.4,0000.0,0014.29,0005.52,0004.46
2022-10-13 09:40:00,,0830.8,5.00,0.00,26.7,25.0,00.0,35.6,28.6,15.5,0000.0,0014.18,0005.49,0004.46
2022-10-13 09:41:00,,0830.8,5.00,0.00,26.7,25.0,00.0,35.6,28.6,15.5,0000.0,0013.65,0005.46,0004.45
2022-10-13 09:42:00,,0830.8,5.00,0.00,26.7,25.0,00.0,35.6,28.5,15.5,0000.0,0013.04,0005.44,0004.45
2022-10-13 09:43:00,,0830.8,5.00,0.00,26.7,25.0,00.0,35.6,28.5,15.6,0000.0,0013.30,0005.44,0004.46
2022-10-13 09:44:00,,0830.7,5.01,0.00,26.7,25.0,00.0,35.6,28.6,15.7,0000.0,0013.13,0005.47,0004.47
2022-10-13 09:45:00,,0830.7,5.00,0.00,26.7,24.9,00.0,35.5,28.5,15.7,0000.0,0013.21,0005.53,0004.46
2022-10-13 09:46:00,,0830.7,5.00,0.00,26.7,24.9,00.0,35.5,28.5,15.7,0000.0,0013.63,0005.55,0004.47
2022-10-13 09:47:00,,0830.6,5.00,0.00,26.6,24.9,00.0,35.5,28.5,15.7,0000.0,0013.42,0005.56,0004.47
2022-10-13 09:48:00,,0830.6,5.00,0.00,26.6,24.9,00.0,35.5,28.4,15.7,0000.0,0013.22,0005.56,0004.48
2022-10-13 09:49:00,,0830.6,5.01,0.00,26.6,24.9,00.0,35.5,28.5,15.7,0000.0,0013.36,0005.58,0004.50
2022-10-13 09:50:00,,0830.6,4.98,0.00,26.6,24.9,00.0,35.5,28.5,15.7,0000.0,0014.17,0005.61,0004.52
2022-10-13 09:51:00,,0830.6,5.00,0.00,26.6,24.9,00.0,35.5,28.5,15.8,0000.0,0014.49,0005.67,0004.52
2022-10-13 09:52:00,,0830.6,5.01,0.00,26.6,24.9,00.0,35.5,28.4,15.8,0000.0,0015.47,0005.72,0004.52
2022-10-13 09:53:00,,0830.6,5.00,0.00,26.6,24.9,00.0,35.5,28.5,15.7,0000.0,0015.61,0005.73,0004.51
2022-10-13 09:54:00,,0830.6,5.00,0.00,26.6,24.9,00.0,35.5,28.5,15.7,0000.0,0015.39,0005.73,0004.50
2022-10-13 09:55:00,,0830.5,5.00,0.00,26.6,24.9,00.0,35.5,28.4,15.7,0000.0,0015.21,0005.71,0004.49
2022-10-13 09:56:00,,0830.5,4.99,0.00,26.6,24.9,00.0,35.5,28.4,15.7,0000.0,0015.85,0005.68,0004.50
2022-10-13 09:57:00,,0830.5,5.00,0.00,26.6,24.9,00.0,35.4,28.4,15.7,0000.0,0015.91,0005.66,0004.50
2022-10-13 09:58:00,,0830.6,5.01,0.00,26.6,24.9,00.0,35.4,28.5,15.7,0000.0,0015.39,0005.65,0004.50
2022-10-13 09:59:00,,0830.6,5.01,0.00,26.6,24.9,00.0,35.4,28.4,15.8,0000.0,0014.93,0005.59,0004.49
